Regional Weather Roundup
Issued by NWS

Home | Current Version | Previous Version | Graphics & Text | Print | Product List | Glossary On
Versions: 1 2 3 4 5 6 7 8 9 10 11 12 13 14 15 16 17 18 19 20 21 22 23 24 25 26 27 28 29 30 31 32 33 34 35 36 37 38 39 40 41 42 43 44 45 46 47 48 49 50
000
ASUS43 KLOT 171103
RWRIL

ILLINOIS REGIONAL WEATHER ROUNDUP
NATIONAL WEATHER SERVICE CHICAGO/ROMEOVILLE IL
500 AM CST FRI NOV 17 2017

NOTE: "FAIR" INDICATES FEW OR NO CLOUDS BELOW 12,000 FEET WITH NO
SIGNIFICANT WEATHER AND/OR OBSTRUCTIONS TO VISIBILITY.

* THESE STATIONS ARE NOT UNDER NWS QUALITY CONTROL. THEY ALSO MAY NOT
  REPORT WEATHER SUCH AS PRECIPITATION OR FOG.

ILZ001-002-007-009-015-016-024-171200-
NORTHWEST ILLINOIS

CITY           SKY/WX    TMP DP  RH WIND       PRES   REMARKS
MOLINE         CLOUDY    34  29  82 SE9       30.04F WCI  27
STERLING*        N/A    N/A N/A N/A MISG        N/A
SAVANNA*       CLOUDY    33  30  89 SE12G20   30.08F WCI  24
$$

ILZ003-004-008-010-011-017-018-171200-
NORTH CENTRAL ILLINOIS

CITY           SKY/WX    TMP DP  RH WIND       PRES   REMARKS
ROCKFORD       CLOUDY    33  28  81 S14       30.12F WCI  23
FREEPORT*      CLOUDY    31  28  90 S10       30.11F WCI  22
ROCHELLE*      CLOUDY    32  30  92 SE13      30.11F WCI  22
DE KALB*       CLOUDY    32  30  92 SE12      30.13F WCI  23
PERU*          CLOUDY    30  28  89 SE13G20   30.11F WCI  20
$$

ILZ005-006-012>014-019>023-171200-
NORTHEAST ILLINOIS

CITY           SKY/WX    TMP DP  RH WIND       PRES   REMARKS
CHICAGO-OHARE  CLOUDY    36  30  79 S13       30.14F WCI  27
CHICAGO-MIDWAY CLOUDY    37  31  78 S13       30.16F WCI  29
AURORA         PTCLDY    34  29  82 S9        30.15S WCI  27
LANSING*       CLOUDY    35  32  88 SE12      30.16F WCI  27
JOLIET*        CLOUDY    35  32  86 SE8       30.17S WCI  29
WAUKEGAN       CLOUDY    36  30  79 S8        30.14S WCI  30
DUPAGE AIRPORT PTCLDY    34  30  85 S10       30.14R WCI  26
KANKAKEE*      MOCLDY    33  31  91 SE9       30.17F WCI  25
WHEELING       CLOUDY    37  31  78 S12       30.16S WCI  29
MORRIS*        PTCLDY    33  29  85 S13       30.15S WCI  24
ROMEOVILLE*    PTCLDY    34  31  88 S9        30.16R WCI  27
NORTHERLY ISL    N/A     36  30  79 S13         N/A  WCI  27
$$

LMZ740>746-171200-
SOUTHERN LAKE MICHIGAN

STATION/POSITION SKY/WX   TEMP    WIND        PRES    VSBY  WAVE
                          AIR SEA DIR/SP/G                  HT/PER
                          (F)     (DEG/KT/KT) (MB)    (MI)  (FT/S)
SOUTHERN BUOY              43 50  150/ 16/ 19 1021.0          2/ 7
HARRISON CRIB              38     180/ 23/ 24   N/A
BURNHAM HARBOR             36     140/ 10/ 15   N/A
CALUMET HARBOR             36     150/  9/ 17 1020.6F
BURNS HARBOR               36     170/  6/ 12 1022.0F
MICHIGAN CITY              36     150/  9/ 13   N/A
$$

ILZ025>027-034>036-040-047-049-050-058-095>099-171200-
WEST-CENTRAL ILLINOIS

CITY           SKY/WX    TMP DP  RH WIND       PRES   REMARKS
QUINCY         CLOUDY    36  31  82 SE14      29.99F WCI  27
GALESBURG*     CLOUDY    32  31  96 SE12G17   30.04F WCI  23
MACOMB*        CLOUDY    32  32  99 SE16      30.06F WCI  21
JACKSONVILLE*  CLOUDY    32  31  95 SE14      30.08F FOG     WCI  22
PITTSFIELD*    CLOUDY    34  32  92 SE12      30.06F WCI  26
$$

ILZ028>032-037-038-041>044-048-051>054-059>061-171200-
CENTRAL ILLINOIS

CITY           SKY/WX    TMP DP  RH WIND       PRES   REMARKS
PONTIAC        CLOUDY    31  31  99 SE13      30.15F WCI  22
BLOOMINGTON    CLEAR     30  29  96 SE16      30.13F WCI  19
DECATUR        CLEAR     30  28  92 SE9       30.14F WCI  22
PEORIA         CLOUDY    32  29  88 S12G17    30.10F WCI  23
LACON*         CLEAR     30  28  94 S7        30.10F WCI  23
LINCOLN*       CLEAR     31  30  97 SE7       30.13S WCI  24
SPRINGFIELD    PTCLDY    32  30  92 SE12      30.11F WCI  23
TAYLORVILLE    PTCLDY    31  30  95 SE9       30.14S FOG     WCI  23
$$

ILZ033-039-045-046-055>057-062-063-171200-
EAST-CENTRAL ILLINOIS

CITY           SKY/WX    TMP DP  RH WIND       PRES   REMARKS
CHAMPAIGN      PTCLDY    30  27  88 E9        30.17F FOG     WCI  22
DANVILLE*      CLOUDY    29  28  93 SE6       30.17S WCI  23
RANTOUL*       PTCLDY    32  31  96 SE8       30.17F WCI  25
MATTOON        CLEAR     30  28  92 SE9       30.16F WCI  22
PARIS*         CLEAR     30  29  96 SE3       30.21R
$$

ILZ079-100>102-171200-
SOUTHWEST ILLINOIS

CITY           SKY/WX    TMP DP  RH WIND       PRES   REMARKS
ALTON          FOG       31  31 100 SE9       30.11F VSB 3/4 WCI  23
BELLEVILLE     FOG       32  30  94 SE9       30.12F VSB 1/4 WCI  24
CAHOKIA*       CLOUDY    32  31  96 SE10      30.12S FOG     WCI  24
SPARTA*        CLOUDY    33  33 100 S7        30.16R FOG     WCI  26
$$

ILZ064>066-069>071-074>076-080>082-084>086-088>090-092>094-171200-
SOUTH-CENTRAL ILLINOIS

CITY           SKY/WX    TMP DP  RH WIND       PRES   REMARKS
CARBONDALE     CLEAR     30  30 100 E5        30.14F FOG     WCI  25
CAIRO*         CLOUDY    32  32 100 E6        30.15F FOG     WCI  26
EFFINGHAM*     CLEAR     30  30 100 E6        30.17F FOG     WCI  24
MARION         CLEAR     32  32  99 SE3       30.16F FOG
MT. VERNON     CLOUDY    28  28 100 NE5       30.16F FOG     WCI  23
CENTRALIA*     CLEAR     32  32  99 SE7       30.13F FOG     WCI  25
SALEM*         PTCLDY    31  30  93 SE6       30.14F FOG     WCI  26
METROPOLIS*    CLEAR     31  30  98 E3        30.17F FOG
$$

ILZ067-068-072-073-078-083-087-091-171200-
SOUTHEAST ILLINOIS

CITY           SKY/WX    TMP DP  RH WIND       PRES   REMARKS
LAWRENCEVILLE  CLEAR     30  28  92 E6        30.21S FOG     WCI  24
FLORA*         CLEAR     29  28  95 E3        30.18F FOG
FAIRFIELD*     CLOUDY    29  29 100 CALM      30.17S FOG
HARRISBURG*    CLEAR     31  31  99 E6        30.17F FOG     WCI  25
ROBINSON*      CLEAR     27  26  99 E3        30.22S FOG
CARMI*         CLEAR     27  27  99 E7        30.17F FOG     WCI  20
$$

ABBREVIATIONS USED IN REMARKS
   TC - TEMPERATURE IN CELSIUS
  WCI - WIND CHILL INDEX
   HX - HEAT INDEX
  VSB - VISIBILITY
$$




USA.gov is the U.S. government's official web portal to all federal, state and local government web resources and services.